Location: Cheching
(60.0667°N, 164.2167°W)
Time: 13:54:18
(UTC+00:00)

NOAA 19 - Pass Details

Date: 19 January 2021
Orbit: 840 x 862 km, 99.2° (Epoch: 01 March)

Event Time Altitude Azimuth Distance (km) Brightness Sun altitude
Rises 05:33:47 0° 194° (SSW) 3,432 8.6 -20.7°
Reaches altitude 10° 05:36:26 10° 204° (SSW) 2,498 8.0 -21.0°
Maximum altitude 05:41:20 32° 267° (W) 1,453 7.1 -21.7°
Drops below altitude 10° 05:46:16 10° 329° (NNW) 2,503 8.0 -22.3°
Sets 05:48:56 0° 340° (NNW) 3,441 8.6 -22.6°
